Location: Vihti�l�
(61.3833°N, 23.0667°E)
Time: 04:45:25
(UTC+00:00)

Cosmos 1503 Rocket - Pass Details

Date: 29 November 2020
Orbit: 751 x 792 km, 74.0° (Epoch: 19 January)

Event Time Altitude Azimuth Distance (km) Brightness Sun altitude
Exits shadow 03:46:32 45° 316° (NW) 1,045 4.3 -22.3°
Maximum altitude 03:46:37 45° 319° (NW) 1,045 4.3 -22.3°
Drops below altitude 10° 03:51:42 10° 32° (NNE) 2,337 6.8 -21.7°
Sets 03:54:13 0° 39° (NE) 3,274 7.7 -21.4°
